EW4196 Weather Reports


Display with metric or nautical units.
time (UTC)temp
F
wind
direction
speed
MPH
gust
MPH
rain 1hr
in
rain 24hr
in
rain mn
in
humidity
%
barometer
mb
20210418080145 47 149 0.0 0.0 0.00 0.00 0.00 86 1019.3
20210418074537 47 149 0.0 0.0 0.00 0.00 0.00 86 1019.5
20210418073046 47 149 0.0 0.0 0.00 0.00 0.00 85 1019.5
20210418071544 47 149 0.0 0.0 0.00 0.00 0.00 85 1019.7
20210418070030 47 149 0.0 0.0 0.00 0.00 0.00 85 1020.0
20210418064514 47 149 0.0 0.0 0.00 0.00 0.00 85 1020.1
20210418063032 47 149 0.0 0.0 0.00 0.00 0.00 85 1020.3
20210418061528 47 149 0.0 0.0 0.00 0.00 0.00 85 1020.4
20210418060147 47 149 0.0 0.0 0.00 0.00 0.00 84 1020.4
20210418054535 47 149 0.0 0.0 0.00 0.00 0.00 84 1020.6
20210418053049 47 149 0.0 0.0 0.00 0.00 0.00 84 1020.7
20210418051516 47 149 0.0 0.0 0.00 0.00 0.00 83 1020.7
20210418050154 46 149 0.0 0.0 0.00 0.00 0.00 82 1020.8
20210418044720 46 149 0.0 0.0 0.00 0.01 0.00 81 1020.8
20210418043233 46 149 0.0 0.0 0.00 0.01 0.00 80 1020.7
20210418041803 46 149 0.0 0.0 0.00 0.01 0.00 78 1020.7
20210418040128 47 149 0.0 0.0 0.00 0.01 0.00 76 1020.6
20210418034702 48 149 0.0 0.0 0.00 0.07 0.00 73 1020.5
20210418033214 50 149 0.0 0.0 0.00 0.07 0.00 70 1020.3
20210418031901 51 149 0.0 2.0 0.00 0.07 0.00 69 1020.2
20210418030255 51 151 0.0 2.0 0.00 0.07 0.00 68 1020.0
20210418024708 52 149 0.0 2.0 0.00 0.10 0.00 67 1019.9
20210418023118 52 153 0.0 0.0 0.00 0.10 0.00 67 1019.8
20210418021643 52 149 0.0 0.0 0.00 0.10 0.00 66 1019.7
20210418020306 52 149 0.0 2.0 0.00 0.10 0.00 66 1019.6
20210418014617 52 160 0.0 3.0 0.00 0.11 0.00 64 1019.6
20210418013324 52 150 1.0 3.0 0.00 0.11 0.00 63 1019.5
20210418011628 53 155 0.0 4.0 0.00 0.11 0.00 62 1019.4
20210418010152 53 164 0.0 3.0 0.00 0.11 0.00 62 1019.3
20210418004710 53 154 0.0 3.0 0.00 0.11 0.00 61 1019.2
20210418003117 53 143 1.0 5.0 0.00 0.11 0.00 59 1019.3
20210418001748 54 148 1.0 6.0 0.00 0.11 0.00 59 1019.2
20210418000126 54 139 1.0 5.0 0.00 0.11 0.00 58 1019.1
20210417234622 54 141 2.0 5.0 0.00 0.11 0.00 57 1019.0
20210417233139 54 148 1.0 5.0 0.00 0.11 0.00 56 1019.1
20210417231625 54 139 1.0 5.0 0.00 0.11 0.00 56 1019.2
20210417230136 55 154 0.0 6.0 0.00 0.11 0.00 56 1019.0
20210417224713 55 148 3.0 8.0 0.00 0.11 0.00 54 1019.0
20210417223109 55 144 2.0 6.0 0.00 0.11 0.00 57 1019.0
20210417221624 54 145 3.0 7.0 0.00 0.11 0.00 56 1019.0
20210417220059 55 153 1.0 7.0 0.00 0.12 0.00 58 1019.1
20210417214551 54 148 2.0 9.0 0.00 0.12 0.00 57 1019.1
20210417213116 54 144 0.0 9.0 0.00 0.12 0.00 58 1019.1
20210417211603 56 162 2.0 8.0 0.00 0.12 0.00 54 1019.2
20210417210048 55 143 2.0 9.0 0.00 0.12 0.00 56 1019.4
20210417204554 55 145 2.0 8.0 0.00 0.12 0.00 56 1019.5
20210417203100 54 143 0.0 7.0 0.00 0.12 0.00 55 1019.6
20210417201622 55 150 3.0 9.0 0.00 0.12 0.00 53 1019.7
20210417200103 54 146 1.0 7.0 0.00 0.12 0.00 58 1019.9
20210417194547 54 134 0.0 9.0 0.00 0.12 0.00 58 1020.0
20210417193127 54 148 3.0 8.0 0.00 0.12 0.00 58 1020.0
20210417191543 55 144 2.0 6.0 0.00 0.12 0.00 58 1020.0
20210417190044 54 146 2.0 8.0 0.00 0.12 0.00 58 1020.0
20210417184544 53 146 2.0 10.0 0.00 0.12 0.00 60 1020.1
20210417183141 54 147 2.0 12.0 0.00 0.12 0.00 59 1020.0
20210417181536 53 127 0.0 7.0 0.00 0.12 0.00 64 1020.1
20210417180049 52 144 1.0 9.0 0.00 0.16 0.00 69 1020.2
20210417174525 50 147 3.0 9.0 0.00 0.16 0.00 71 1020.1
20210417173032 50 150 3.0 9.0 0.00 0.16 0.00 70 1020.4
20210417171547 51 148 2.0 6.0 0.00 0.16 0.00 71 1020.4
20210417170037 52 150 2.0 12.0 0.00 0.16 0.00 71 1020.4
20210417164520 51 151 3.0 6.0 0.00 0.16 0.00 75 1020.4
20210417163030 49 148 3.0 7.0 0.00 0.16 0.00 79 1020.5
20210417161509 47 146 1.0 7.0 0.00 0.16 0.00 83 1020.5
20210417160029 47 158 0.0 8.0 0.00 0.17 0.00 82 1020.5
20210417153038 47 156 0.0 6.0 0.00 0.17 0.00 82 1020.4
20210417151932 47 145 2.0 8.0 0.00 0.17 0.00 83 1020.3
20210417150153 47 144 2.0 8.0 0.00 0.17 0.00 84 1020.1
20210417144822 46 143 2.0 9.0 0.00 0.18 0.00 84 1019.9
20210417143150 46 153 3.0 8.0 0.00 0.18 0.00 84 1019.8
20210417141702 46 146 1.0 8.0 0.00 0.18 0.00 85 1020.0
20210417140148 46 143 2.0 6.0 0.00 0.18 0.00 85 1019.8
20210417135033 46 146 2.0 6.0 0.00 0.39 0.00 86 1019.7
20210417133117 46 147 2.0 8.0 0.00 0.39 0.00 86 1019.6
20210417131654 46 152 1.0 5.0 0.00 0.39 0.00 87 1019.5
20210417130135 45 148 0.0 6.0 0.00 0.39 0.00 87 1019.4
20210417123110 45 146 1.0 4.0 0.00 0.40 0.00 88 1019.1
20210417121644 45 147 0.0 3.0 0.00 0.40 0.00 87 1019.0
20210417114550 45 146 0.0 4.0 0.00 0.40 0.00 87 1018.6
20210417113145 45 148 1.0 7.0 0.00 0.40 0.00 86 1018.6
20210417111543 45 151 2.0 7.0 0.00 0.40 0.00 87 1018.3
20210417110137 45 153 1.0 8.0 0.00 0.40 0.00 87 1018.1
20210417104551 45 150 3.0 8.0 0.00 0.40 0.00 88 1018.0
20210417103141 45 150 1.0 6.0 0.00 0.40 0.00 88 1017.8
20210417101526 45 150 1.0 7.0 0.00 0.40 0.00 88 1017.7
20210417094559 45 150 2.0 6.0 0.00 0.40 0.00 88 1017.6
20210417093029 45 149 3.0 7.0 0.00 0.40 0.00 89 1017.7
20210417091559 45 148 1.0 5.0 0.00 0.40 0.00 90 1017.7
20210417090042 45 145 1.0 6.0 0.00 0.40 0.00 90 1017.6
20210417084540 45 146 0.0 7.0 0.00 0.40 0.00 90 1017.6
20210417083021 45 146 1.0 7.0 0.00 0.40 0.00 90 1017.5
20210417081529 45 145 2.0 8.0 0.00 0.40 0.00 91 1017.3